This is the latest recevied weather packets stored in our database for station/object N2MLB-WX. If no packets are shown the sender has not sent any weather packets the latest 10 day(s).
| Time | Temp. | Humidity | Pressure | Rain* | Wind** | Luminosity | Snow |
|---|---|---|---|---|---|---|---|
| 1777553842 | 6.67° C | 87% | 1006 hPa | 0 mm | - | 25 W/m² | - |
| 1777553541 | 6.67° C | 86% | 1006 hPa | 0 mm | - | 25 W/m² | - |
| 1777553241 | 6.11° C | 86% | 1006 hPa | 0 mm | - | 22 W/m² | - |
| 1777552941 | 6.11° C | 85% | 1006 hPa | 0 mm | - | 24 W/m² | - |
| 1777552643 | 6.11° C | 87% | 1006 hPa | 0 mm | - | 18 W/m² | - |
| 1777552345 | 6.11° C | 86% | 1006 hPa | 0 mm | - | 14 W/m² | - |
| 1777552040 | 6.11° C | 87% | 1006 hPa | 0 mm | - | 12 W/m² | - |
| 1777551742 | 6.11° C | 85% | 1006 hPa | 0 mm | - | 12 W/m² | - |
| 1777551442 | 6.11° C | 86% | 1006 hPa | 0 mm | - | 14 W/m² | - |
| 1777551140 | 6.11° C | 86% | 1006 hPa | 0 mm | - | 18 W/m² | - |
| 1777550541 | 6.11° C | 86% | 1006 hPa | 0 mm | - | 19 W/m² | - |
| 1777550239 | 6.11° C | 87% | 1006 hPa | 0 mm | - | 20 W/m² | - |
| 1777549940 | 6.11° C | 88% | 1006 hPa | 0 mm | - | 19 W/m² | - |
| 1777549641 | 5.56° C | 88% | 1006 hPa | 0 mm | - | 19 W/m² | - |
| 1777549340 | 5.56° C | 88% | 1006 hPa | 0 mm | - | 16 W/m² | - |
| 1777549040 | 5.56° C | 89% | 1006 hPa | 0 mm | - | 11 W/m² | - |
| 1777548740 | 5.56° C | 89% | 1006 hPa | 0 mm | - | 8 W/m² | - |
| 1777548442 | 5.56° C | 90% | 1006 hPa | 0 mm | - | 6 W/m² | - |
| 1777548140 | 5.56° C | 91% | 1006 hPa | 0 mm | - | 5 W/m² | - |
| 1777547840 | 5° C | 88% | 1006 hPa | 0 mm | - | 4 W/m² | - |
| 1777547541 | 5° C | 89% | 1006 hPa | 0 mm | - | 4 W/m² | - |
| 1777547240 | 5° C | 90% | 1006 hPa | 0 mm | - | 4 W/m² | - |
| 1777546942 | 5° C | 90% | 1006 hPa | 0 mm | - | 3 W/m² | - |
| 1777546642 | 5° C | 92% | 1005 hPa | 0 mm | - | 2 W/m² | - |
| 1777546340 | 5° C | 90% | 1005 hPa | 0 mm | - | 2 W/m² | - |
* Rain latest hour (hover to see other rain measurements)
** Current wind speed in m/s (hover to see current wind gust speed)